Lid_Strength_Index
1 1 2 2 2 2 3 3 3 3 3 3 3 3 3 3 2 2 2 2 2 2 2 2 2 2 6 9 8 4 -2 -2 4 6 8 9 10 9 9 10 9 10 10 9 8 8 8
1 1 1 2 2 2 2 3 3 3 3 3 3 3 3 3 2 2 2 2 2 2 2 2 2 2 6 11 5 2 5 6 7 8 9 9 9 8 10 10 10 9 9 10 10 10 9
1 1 1 2 2 2 3 3 3 3 3 3 3 3 3 3 3 2 2 3 3 3 2 2 2 3 7 8 4 5 6 7 7 6 8 7 7 8 9 11 10 10 11 11 11 11 10
1 1 2 2 2 2 2 2 3 3 3 3 3 3 3 3 3 2 2 3 3 3 2 2 1 5 8 4 4 6 6 6 6 6 6 5 6 8 10 9 10 12 12 14 11 10 9
2 2 2 2 2 2 2 2 3 3 3 3 3 4 4 3 3 3 3 3 3 2 2 2 5 7 10 3 6 6 5 6 7 6 6 4 8 10 10 12 13 13 15 14 12 9 9
2 2 2 2 2 3 3 3 3 3 3 3 3 4 4 4 3 3 3 3 2 2 2 2 4 9 8 7 6 6 6 6 7 7 8 8 11 12 13 13 16 15 15 14 13 10 10
2 2 2 2 2 3 3 3 3 3 3 3 3 4 4 4 3 4 5 7 8 8 7 8 8 8 7 5 6 7 6 7 8 8 12 11 12 13 12 12 12 13 14 14 12 10 12
2 2 2 2 2 3 3 3 3 3 3 3 3 4 4 4 4 4 7 8 7 7 9 6 6 6 5 5 7 7 6 9 9 12 11 12 13 11 10 11 12 13 14 14 12 10 12
2 2 2 2 3 3 3 3 3 3 3 3 3 4 4 4 4 6 7 7 6 7 10 8 6 6 6 5 8 8 7 9 10 11 12 13 11 9 10 11 12 13 14 13 12 11 11
2 2 2 3 3 3 3 3 3 3 3 3 4 4 4 5 7 7 8 6 6 7 12 9 8 6 8 8 9 6 7 8 9 11 11 12 10 10 11 11 11 14 11 11 12 13 15
2 2 2 3 3 3 3 3 3 3 3 4 4 4 4 5 9 8 7 6 6 6 17 8 9 7 9 9 8 7 6 7 10 10 10 11 11 11 12 11 10 11 10 12 13 15 16
2 2 2 2 2 3 3 3 3 3 4 4 4 4 5 5 7 6 5 7 7 12 17 10 9 11 11 10 9 7 7 6 7 9 9 10 9 10 11 10 10 10 12 13 14 16 17
2 1 1 2 2 2 3 3 3 3 4 4 5 5 6 6 9 7 6 7 12 15 9 10 12 11 11 11 9 8 9 10 12 14 13 10 10 9 10 12 11 11 14 17 18 18 18
1 1 1 2 2 2 3 3 3 3 4 5 6 6 6 5 8 6 6 10 15 11 11 8 10 11 11 11 11 9 10 12 10 11 13 14 14 10 8 12 14 14 14 16 20 19 18
1 1 1 2 2 3 3 3 3 3 4 5 6 9 7 6 6 6 7 13 13 11 8 10 10 12 11 10 10 10 11 11 10 11 13 14 13 8 8 10 12 13 14 14 16 18 17
1 2 2 2 3 3 3 3 3 3 4 5 10 9 6 4 5 6 9 12 10 7 8 9 12 11 13 11 12 11 11 9 9 8 10 11 15 10 8 9 9 12 11 15 16 18 20
2 2 2 2 3 3 3 3 3 3 4 5 10 9 5 6 5 8 13 12 9 7 8 9 11 11 11 11 11 11 11 10 9 8 9 11 13 13 10 11 12 12 13 15 15 16 19
2 2 2 2 3 4 4 4 4 3 5 8 11 10 6 6 10 12 12 9 7 8 8 8 9 9 11 10 11 11 11 10 7 8 11 11 13 15 13 9 9 12 14 15 17 17 17
2 3 2 3 3 3 4 4 4 4 5 10 12 11 6 6 12 13 10 8 7 8 9 8 9 9 9 11 12 10 9 8 8 9 10 12 15 18 15 12 10 11 11 13 15 16 16
3 3 3 3 3 4 4 4 4 4 5 9 10 11 9 9 10 11 11 11 10 8 8 8 9 9 10 11 10 11 10 8 7 7 6 9 15 16 17 15 12 13 12 13 15 19 17
3 3 3 3 3 4 3 3 4 4 5 9 11 12 11 13 11 11 11 11 10 10 9 9 10 9 11 14 12 12 10 9 8 7 9 12 14 13 12 11 11 12 12 12 14 15 17
3 3 3 3 3 4 4 3 4 4 5 9 12 12 12 12 11 10 11 11 10 10 10 10 10 9 10 11 11 11 11 11 11 9 10 12 14 13 14 11 11 12 11 11 12 12 12
3 3 3 3 3 3 4 3 4 3 6 12 12 11 11 11 10 12 12 10 9 10 9 8 9 10 11 9 9 10 10 10 9 10 12 13 13 16 16 12 13 16 13 12 12 11 12
3 3 3 3 3 3 4 3 4 3 6 11 13 11 11 12 10 11 9 9 10 9 11 8 9 11 9 7 9 10 11 11 10 11 11 13 14 16 18 16 20 14 9 9 11 11 11
4 4 3 3 4 4 4 4 3 3 3 9 11 11 13 13 10 10 9 10 10 10 9 9 8 8 9 10 12 14 13 13 12 9 12 11 13 17 18 19 15 12 11 11 14 13 10
4 3 3 3 3 3 4 4 4 4 3 9 11 10 11 13 11 8 10 10 12 12 11 9 8 8 9 11 13 16 16 13 14 12 10 11 12 15 19 19 19 14 9 8 11 17 10
4 3 3 3 3 3 4 4 4 3 3 8 9 11 11 13 11 10 11 12 11 12 12 10 9 9 10 13 14 15 15 12 15 15 15 14 15 17 21 20 15 11 9 9 16 15 10
4 4 3 3 3 4 4 4 4 3 3 7 9 10 11 13 12 10 9 10 11 11 12 10 10 10 12 14 14 14 14 14 14 12 13 14 16 18 17 18 18 9 10 14 12 11 10
4 4 3 2 2 3 3 4 3 2 2 6 10 10 9 10 10 10 8 8 9 9 10 10 10 10 10 13 13 13 14 14 14 16 12 15 13 15 15 15 12 10 11 10 10 10 10